Time,TemperatureF,DewpointF,PressureIn,WindDirection,WindDirectionDegrees,WindSpeedMPH,WindSpeedGustMPH,Humidity,HourlyPrecipIn,Conditions,Clouds,dailyrainin,SolarRadiationWatts/m^2,SoftwareType,DateUTC
2013-06-15 00:01:00,68.9,56.2,30.07,ENE,61,0.0,2.0,64,0.00,,,0.00,0,WeatherCatV1.15B25,2013-06-15 04:01:00,
2013-06-15 00:06:00,68.8,56.5,30.07,ENE,61,0.0,1.0,65,0.00,,,0.00,0,WeatherCatV1.15B25,2013-06-15 04:06:00,
2013-06-15 00:11:00,68.7,56.4,30.07,ENE,61,0.0,2.0,65,0.00,,,0.00,0,WeatherCatV1.15B25,2013-06-15 04:11:00,
2013-06-15 00:16:00,68.5,56.7,30.07,ENE,61,0.0,1.0,66,0.00,,,0.00,0,WeatherCatV1.15B25,2013-06-15 04:16:00,
2013-06-15 00:21:00,68.4,57.0,30.06,ENE,61,0.0,0.0,67,0.00,,,0.00,0,WeatherCatV1.15B25,2013-06-15 04:21:00,
2013-06-15 00:26:00,68.2,56.8,30.07,ENE,61,0.0,1.0,67,0.00,,,0.00,0,WeatherCatV1.15B25,2013-06-15 04:26:00,
2013-06-15 00:31:00,68.0,56.6,30.07,ENE,61,0.0,1.0,67,0.00,,,0.00,0,WeatherCatV1.15B25,2013-06-15 04:31:00,
2013-06-15 00:36:00,67.9,56.9,30.07,ENE,61,0.0,1.0,68,0.00,,,0.00,0,WeatherCatV1.15B25,2013-06-15 04:36:00,
2013-06-15 00:41:00,67.9,56.9,30.07,ENE,61,0.0,0.0,68,0.00,,,0.00,0,WeatherCatV1.15B25,2013-06-15 04:41:00,
2013-06-15 00:46:00,67.8,56.8,30.07,ENE,61,0.0,0.0,68,0.00,,,0.00,0,WeatherCatV1.15B25,2013-06-15 04:46:00,
2013-06-15 00:51:00,67.7,56.7,30.07,ENE,61,0.0,0.0,68,0.00,,,0.00,0,WeatherCatV1.15B25,2013-06-15 04:51:00,
2013-06-15 00:56:00,67.6,56.7,30.07,ENE,61,0.0,0.0,68,0.00,,,0.00,0,WeatherCatV1.15B25,2013-06-15 04:56:00,
2013-06-15 01:01:00,67.4,56.9,30.07,ENE,61,0.0,1.0,69,0.00,,,0.00,0,WeatherCatV1.15B25,2013-06-15 05:01:00,
2013-06-15 01:06:00,67.2,56.7,30.07,ENE,61,0.0,0.0,69,0.00,,,0.00,0,WeatherCatV1.15B25,2013-06-15 05:06:00,
2013-06-15 01:11:00,67.1,56.6,30.07,ENE,61,1.0,1.0,69,0.00,,,0.00,0,WeatherCatV1.15B25,2013-06-15 05:11:00,
2013-06-15 01:16:00,66.9,56.8,30.08,ENE,61,0.0,1.0,70,0.00,,,0.00,0,WeatherCatV1.15B25,2013-06-15 05:16:00,
2013-06-15 01:21:00,66.8,56.3,30.07,ENE,61,0.0,1.0,69,0.00,,,0.00,0,WeatherCatV1.15B25,2013-06-15 05:21:00,
2013-06-15 01:26:00,66.7,56.6,30.07,ENE,61,0.0,1.0,70,0.00,,,0.00,0,WeatherCatV1.15B25,2013-06-15 05:26:00,
2013-06-15 01:31:00,66.5,56.4,30.07,ENE,61,1.0,2.0,70,0.00,,,0.00,0,WeatherCatV1.15B25,2013-06-15 05:31:00,
2013-06-15 01:36:00,66.4,56.7,30.07,ENE,61,1.0,2.0,71,0.00,,,0.00,0,WeatherCatV1.15B25,2013-06-15 05:36:00,
2013-06-15 01:41:00,66.3,56.6,30.06,ENE,64,0.0,1.0,71,0.00,,,0.00,0,WeatherCatV1.15B25,2013-06-15 05:41:00,
2013-06-15 01:46:00,66.2,56.5,30.06,ENE,64,1.0,2.0,71,0.00,,,0.00,0,WeatherCatV1.15B25,2013-06-15 05:46:00,
2013-06-15 01:51:00,66.1,56.8,30.06,ESE,106,2.0,2.0,72,0.00,,,0.00,0,WeatherCatV1.15B25,2013-06-15 05:51:00,
2013-06-15 01:56:00,66.0,56.7,30.07,ESE,106,2.0,2.0,72,0.00,,,0.00,0,WeatherCatV1.15B25,2013-06-15 05:56:00,
2013-06-15 02:00:00,65.8,56.9,30.07,ESE,106,1.0,2.0,73,0.00,,,0.00,0,WeatherCatV1.15B25,2013-06-15 06:00:00,
2013-06-15 02:05:00,65.7,56.8,30.07,ESE,106,1.0,1.0,73,0.00,,,0.00,0,WeatherCatV1.15B25,2013-06-15 06:05:00,
2013-06-15 02:10:00,65.5,56.6,30.07,ESE,106,1.0,4.0,73,0.00,,,0.00,0,WeatherCatV1.15B25,2013-06-15 06:10:00,
2013-06-15 02:15:00,65.4,56.9,30.07,ESE,106,1.0,4.0,74,0.00,,,0.00,0,WeatherCatV1.15B25,2013-06-15 06:15:00,
2013-06-15 02:20:00,65.2,56.7,30.07,ESE,106,1.0,2.0,74,0.00,,,0.00,0,WeatherCatV1.15B25,2013-06-15 06:20:00,
2013-06-15 02:25:00,65.1,57.0,30.07,ESE,106,2.0,4.0,75,0.00,,,0.00,0,WeatherCatV1.15B25,2013-06-15 06:25:00,
2013-06-15 02:30:00,65.0,56.9,30.07,ESE,106,1.0,2.0,75,0.00,,,0.00,0,WeatherCatV1.15B25,2013-06-15 06:30:00,
2013-06-15 02:35:00,64.8,56.7,30.07,ESE,120,2.0,4.0,75,0.00,,,0.00,0,WeatherCatV1.15B25,2013-06-15 06:35:00,
2013-06-15 02:40:00,64.7,56.6,30.06,ESE,106,2.0,5.0,75,0.00,,,0.00,0,WeatherCatV1.15B25,2013-06-15 06:40:00,
2013-06-15 02:45:00,64.5,56.8,30.07,SE,127,0.0,2.0,76,0.00,,,0.00,0,WeatherCatV1.15B25,2013-06-15 06:45:00,
2013-06-15 02:50:00,64.5,56.8,30.07,SE,127,0.0,2.0,76,0.00,,,0.00,0,WeatherCatV1.15B25,2013-06-15 06:50:00,
2013-06-15 02:55:00,64.4,56.7,30.07,SE,127,1.0,2.0,76,0.00,,,0.00,0,WeatherCatV1.15B25,2013-06-15 06:55:00,
2013-06-15 03:00:00,64.3,56.6,30.07,SE,125,1.0,1.0,76,0.00,,,0.00,0,WeatherCatV1.15B25,2013-06-15 07:00:00,
2013-06-15 03:05:00,64.2,56.8,30.07,SE,125,0.0,2.0,77,0.00,,,0.00,0,WeatherCatV1.15B25,2013-06-15 07:05:00,
2013-06-15 03:10:00,64.2,56.8,30.08,SE,125,0.0,0.0,77,0.00,,,0.00,0,WeatherCatV1.15B25,2013-06-15 07:10:00,
2013-06-15 03:15:00,64.1,56.7,30.08,SE,125,0.0,0.0,77,0.00,,,0.00,0,WeatherCatV1.15B25,2013-06-15 07:15:00,
2013-06-15 03:20:00,64.0,57.0,30.08,SE,125,1.0,1.0,78,0.00,,,0.00,0,WeatherCatV1.15B25,2013-06-15 07:20:00,
2013-06-15 03:25:00,63.9,56.9,30.08,SE,125,1.0,1.0,78,0.00,,,0.00,0,WeatherCatV1.15B25,2013-06-15 07:25:00,
2013-06-15 03:30:00,63.8,56.8,30.09,SE,125,0.0,1.0,78,0.00,,,0.00,0,WeatherCatV1.15B25,2013-06-15 07:30:00,
2013-06-15 03:35:00,63.8,56.8,30.09,SE,125,0.0,0.0,78,0.00,,,0.00,0,WeatherCatV1.15B25,2013-06-15 07:35:00,
2013-06-15 03:40:00,63.7,56.7,30.09,SE,125,0.0,0.0,78,0.00,,,0.00,0,WeatherCatV1.15B25,2013-06-15 07:40:00,
2013-06-15 03:45:00,63.7,56.7,30.09,SE,125,0.0,0.0,78,0.00,,,0.00,0,WeatherCatV1.15B25,2013-06-15 07:45:00,
2013-06-15 03:50:00,63.6,56.6,30.10,SE,125,0.0,0.0,78,0.00,,,0.00,0,WeatherCatV1.15B25,2013-06-15 07:50:00,
2013-06-15 03:55:00,63.4,56.8,30.10,SE,125,0.0,0.0,79,0.00,,,0.00,0,WeatherCatV1.15B25,2013-06-15 07:55:00,
2013-06-15 04:00:00,63.3,56.7,30.10,SE,125,0.0,0.0,79,0.00,,,0.00,0,WeatherCatV1.15B25,2013-06-15 08:00:00,
2013-06-15 04:05:00,63.2,56.6,30.10,SE,125,0.0,0.0,79,0.00,,,0.00,0,WeatherCatV1.15B25,2013-06-15 08:05:00,
2013-06-15 04:10:00,63.0,56.4,30.10,SE,125,0.0,0.0,79,0.00,,,0.00,0,WeatherCatV1.15B25,2013-06-15 08:10:00,
2013-06-15 04:15:00,62.8,56.5,30.10,SE,125,0.0,0.0,80,0.00,,,0.00,0,WeatherCatV1.15B25,2013-06-15 08:15:00,
2013-06-15 04:20:00,62.7,56.4,30.10,SE,125,0.0,0.0,80,0.00,,,0.00,0,WeatherCatV1.15B25,2013-06-15 08:20:00,
2013-06-15 04:25:00,62.5,56.6,30.10,SE,125,0.0,0.0,81,0.00,,,0.00,0,WeatherCatV1.15B25,2013-06-15 08:25:00,
2013-06-15 04:30:00,62.3,56.7,30.10,SE,125,0.0,0.0,82,0.00,,,0.00,0,WeatherCatV1.15B25,2013-06-15 08:30:00,
2013-06-15 04:35:00,62.0,56.8,30.10,SE,125,0.0,0.0,83,0.00,,,0.00,0,WeatherCatV1.15B25,2013-06-15 08:35:00,
2013-06-15 04:40:00,61.9,56.7,30.10,SE,125,0.0,0.0,83,0.00,,,0.00,0,WeatherCatV1.15B25,2013-06-15 08:40:00,
2013-06-15 04:45:00,61.8,56.9,30.09,SE,125,0.0,0.0,84,0.00,,,0.00,0,WeatherCatV1.15B25,2013-06-15 08:45:00,
2013-06-15 04:50:00,61.8,56.6,30.09,SE,125,0.0,0.0,83,0.00,,,0.00,0,WeatherCatV1.15B25,2013-06-15 08:50:00,
2013-06-15 04:55:00,61.7,56.5,30.10,SE,125,0.0,0.0,83,0.00,,,0.00,0,WeatherCatV1.15B25,2013-06-15 08:55:00,
2013-06-15 05:00:00,61.6,56.4,30.10,SE,125,0.0,0.0,83,0.00,,,0.00,0,WeatherCatV1.15B25,2013-06-15 09:00:00,
2013-06-15 05:05:00,61.5,56.6,30.10,SE,125,0.0,0.0,84,0.00,,,0.00,0,WeatherCatV1.15B25,2013-06-15 09:05:00,
2013-06-15 05:10:00,61.4,56.5,30.09,SE,125,0.0,0.0,84,0.00,,,0.00,0,WeatherCatV1.15B25,2013-06-15 09:10:00,
2013-06-15 05:15:00,61.4,56.8,30.09,SE,125,0.0,1.0,85,0.00,,,0.00,0,WeatherCatV1.15B25,2013-06-15 09:15:00,
2013-06-15 05:20:00,61.4,56.5,30.09,SE,125,0.0,1.0,84,0.00,,,0.00,0,WeatherCatV1.15B25,2013-06-15 09:20:00,
2013-06-15 05:25:00,61.5,56.6,30.09,SE,125,2.0,2.0,84,0.00,,,0.00,0,WeatherCatV1.15B25,2013-06-15 09:25:00,
2013-06-15 05:30:00,61.6,56.7,30.09,SE,125,1.0,1.0,84,0.00,,,0.00,0,WeatherCatV1.15B25,2013-06-15 09:30:00,
2013-06-15 05:35:00,61.6,56.7,30.09,SE,125,0.0,1.0,84,0.00,,,0.00,0,WeatherCatV1.15B25,2013-06-15 09:35:00,
2013-06-15 05:40:00,61.7,56.8,30.09,SE,125,1.0,2.0,84,0.00,,,0.00,0,WeatherCatV1.15B25,2013-06-15 09:40:00,
2013-06-15 05:45:00,61.8,56.6,30.09,SE,125,0.0,1.0,83,0.00,,,0.00,0,WeatherCatV1.15B25,2013-06-15 09:45:00,
2013-06-15 05:50:00,61.9,56.7,30.09,SE,125,0.0,1.0,83,0.00,,,0.00,0,WeatherCatV1.15B25,2013-06-15 09:50:00,
2013-06-15 05:55:00,62.0,56.8,30.09,SE,125,1.0,1.0,83,0.00,,,0.00,0,WeatherCatV1.15B25,2013-06-15 09:55:00,
2013-06-15 06:00:00,62.0,56.8,30.09,South,175,1.0,3.0,83,0.00,,,0.00,0,WeatherCatV1.15B25,2013-06-15 10:00:00,
2013-06-15 06:05:00,62.0,56.8,30.10,East,100,0.0,1.0,83,0.00,,,0.00,0,WeatherCatV1.15B25,2013-06-15 10:05:00,
2013-06-15 06:10:00,62.0,56.8,30.10,ESE,102,0.0,1.0,83,0.00,,,0.00,0,WeatherCatV1.15B25,2013-06-15 10:10:00,
2013-06-15 06:15:00,62.0,56.8,30.10,North,350,1.0,1.0,83,0.00,,,0.00,0,WeatherCatV1.15B25,2013-06-15 10:15:00,
2013-06-15 06:20:00,62.0,56.8,30.10,ESE,115,0.0,1.0,83,0.00,,,0.00,9,WeatherCatV1.15B25,2013-06-15 10:20:00,
2013-06-15 06:25:00,62.0,57.1,30.10,ESE,115,0.0,1.0,84,0.00,,,0.00,14,WeatherCatV1.15B25,2013-06-15 10:25:00,
2013-06-15 06:30:00,61.9,57.0,30.10,ESE,115,0.0,1.0,84,0.00,,,0.00,19,WeatherCatV1.15B25,2013-06-15 10:30:00,
2013-06-15 06:35:00,62.0,57.1,30.11,ESE,115,0.0,0.0,84,0.00,,,0.00,26,WeatherCatV1.15B25,2013-06-15 10:35:00,
2013-06-15 06:40:00,62.0,57.1,30.11,ESE,115,0.0,0.0,84,0.00,,,0.00,32,WeatherCatV1.15B25,2013-06-15 10:40:00,
2013-06-15 06:45:00,62.1,57.2,30.11,ESE,110,0.0,1.0,84,0.00,,,0.00,37,WeatherCatV1.15B25,2013-06-15 10:45:00,
2013-06-15 06:50:00,62.1,57.2,30.12,ESE,110,1.0,1.0,84,0.00,,,0.00,42,WeatherCatV1.15B25,2013-06-15 10:50:00,
2013-06-15 06:55:00,62.2,57.3,30.12,ESE,110,0.0,0.0,84,0.00,,,0.00,47,WeatherCatV1.15B25,2013-06-15 10:55:00,
2013-06-15 07:00:00,62.3,57.4,30.12,ESE,110,1.0,1.0,84,0.00,,,0.00,53,WeatherCatV1.15B25,2013-06-15 11:00:00,
2013-06-15 07:05:00,62.3,57.4,30.12,ESE,110,0.0,0.0,84,0.00,,,0.00,58,WeatherCatV1.15B25,2013-06-15 11:05:00,
2013-06-15 07:10:00,62.4,57.5,30.12,ESE,110,0.0,1.0,84,0.00,,,0.00,67,WeatherCatV1.15B25,2013-06-15 11:10:00,
2013-06-15 07:15:00,62.5,57.6,30.12,ESE,108,0.0,1.0,84,0.00,,,0.00,83,WeatherCatV1.15B25,2013-06-15 11:15:00,
2013-06-15 07:20:00,62.6,57.7,30.13,SE,131,0.0,1.0,84,0.00,,,0.00,97,WeatherCatV1.15B25,2013-06-15 11:20:00,
2013-06-15 07:25:00,62.8,57.9,30.13,South,189,1.0,2.0,84,0.00,,,0.00,114,WeatherCatV1.15B25,2013-06-15 11:25:00,
2013-06-15 07:30:00,63.1,57.8,30.13,South,189,1.0,2.0,83,0.00,,,0.00,130,WeatherCatV1.15B25,2013-06-15 11:30:00,
2013-06-15 07:35:00,63.3,58.0,30.13,South,189,1.0,2.0,83,0.00,,,0.00,142,WeatherCatV1.15B25,2013-06-15 11:35:00,
2013-06-15 07:40:00,63.8,58.2,30.13,South,185,0.0,0.0,82,0.00,,,0.00,158,WeatherCatV1.15B25,2013-06-15 11:40:00,
2013-06-15 07:45:00,64.2,58.2,30.13,South,185,0.0,2.0,81,0.00,,,0.00,174,WeatherCatV1.15B25,2013-06-15 11:45:00,
2013-06-15 07:50:00,64.7,58.4,30.13,SSE,152,1.0,3.0,80,0.00,,,0.00,186,WeatherCatV1.15B25,2013-06-15 11:50:00,
2013-06-15 07:55:00,65.1,58.8,30.13,SSE,152,1.0,2.0,80,0.00,,,0.00,197,WeatherCatV1.15B25,2013-06-15 11:55:00,
2013-06-15 08:00:00,65.5,58.5,30.13,South,171,0.0,4.0,78,0.00,,,0.00,211,WeatherCatV1.15B25,2013-06-15 12:00:00,
2013-06-15 08:05:00,66.0,58.9,30.13,South,177,0.0,1.0,78,0.00,,,0.00,229,WeatherCatV1.15B25,2013-06-15 12:05:00,
2013-06-15 08:10:00,66.4,59.0,30.12,SSW,194,2.0,4.0,77,0.00,,,0.00,243,WeatherCatV1.15B25,2013-06-15 12:10:00,
2013-06-15 08:15:00,66.8,59.0,30.12,South,175,2.0,2.0,76,0.00,,,0.00,251,WeatherCatV1.15B25,2013-06-15 12:15:00,
2013-06-15 08:20:00,67.2,59.0,30.12,ESE,108,1.0,4.0,75,0.00,,,0.00,248,WeatherCatV1.15B25,2013-06-15 12:20:00,
2013-06-15 08:25:00,67.7,59.1,30.12,SE,143,1.0,5.0,74,0.00,,,0.00,274,WeatherCatV1.15B25,2013-06-15 12:25:00,
2013-06-15 08:30:00,68.0,59.0,30.12,South,190,3.0,4.0,73,0.00,,,0.00,295,WeatherCatV1.15B25,2013-06-15 12:30:00,
2013-06-15 08:35:00,68.4,59.4,30.12,South,180,2.0,2.0,73,0.00,,,0.00,327,WeatherCatV1.15B25,2013-06-15 12:35:00,
2013-06-15 08:40:00,68.8,59.0,30.13,SSE,149,4.0,7.0,71,0.00,,,0.00,348,WeatherCatV1.15B25,2013-06-15 12:40:00,
2013-06-15 08:45:00,69.1,58.5,30.13,SE,124,0.0,6.0,69,0.00,,,0.00,355,WeatherCatV1.15B25,2013-06-15 12:45:00,
2013-06-15 08:50:00,69.5,58.9,30.13,ESE,116,0.0,5.0,69,0.00,,,0.00,376,WeatherCatV1.15B25,2013-06-15 12:50:00,
2013-06-15 08:55:00,69.9,59.3,30.13,ESE,113,4.0,4.0,69,0.00,,,0.00,397,WeatherCatV1.15B25,2013-06-15 12:55:00,
2013-06-15 09:00:00,70.4,58.9,30.13,South,172,2.0,4.0,67,0.00,,,0.00,408,WeatherCatV1.15B25,2013-06-15 13:00:00,
2013-06-15 09:05:00,70.7,59.2,30.13,SSE,159,2.0,4.0,67,0.00,,,0.00,424,WeatherCatV1.15B25,2013-06-15 13:05:00,
2013-06-15 09:10:00,71.1,59.2,30.13,SSE,154,2.0,8.0,66,0.00,,,0.00,438,WeatherCatV1.15B25,2013-06-15 13:10:00,
2013-06-15 09:15:00,71.4,59.4,30.13,SSE,153,4.0,8.0,66,0.00,,,0.00,455,WeatherCatV1.15B25,2013-06-15 13:15:00,
2013-06-15 09:20:00,71.7,59.7,30.13,South,175,4.0,5.0,66,0.00,,,0.00,471,WeatherCatV1.15B25,2013-06-15 13:20:00,
2013-06-15 09:25:00,72.0,59.6,30.14,SSW,200,1.0,5.0,65,0.00,,,0.00,483,WeatherCatV1.15B25,2013-06-15 13:25:00,
2013-06-15 09:30:00,72.2,59.3,30.14,South,169,1.0,5.0,64,0.00,,,0.00,480,WeatherCatV1.15B25,2013-06-15 13:30:00,
2013-06-15 09:35:00,72.6,59.7,30.14,South,174,4.0,5.0,64,0.00,,,0.00,499,WeatherCatV1.15B25,2013-06-15 13:35:00,
2013-06-15 09:40:00,72.9,59.5,30.14,South,180,2.0,4.0,63,0.00,,,0.00,445,WeatherCatV1.15B25,2013-06-15 13:40:00,
2013-06-15 09:45:00,73.5,60.1,30.14,South,169,2.0,4.0,63,0.00,,,0.00,548,WeatherCatV1.15B25,2013-06-15 13:45:00,
2013-06-15 09:50:00,73.8,59.9,30.14,SSE,156,2.0,4.0,62,0.00,,,0.00,496,WeatherCatV1.15B25,2013-06-15 13:50:00,
2013-06-15 09:56:00,74.1,60.2,30.14,West,260,1.0,4.0,62,0.00,,,0.00,490,WeatherCatV1.15B25,2013-06-15 13:56:00,
2013-06-15 10:01:00,74.4,60.1,30.14,SSE,147,6.0,7.0,61,0.00,,,0.00,513,WeatherCatV1.15B25,2013-06-15 14:01:00,
2013-06-15 10:06:00,74.6,60.2,30.14,South,181,3.0,7.0,61,0.00,,,0.00,582,WeatherCatV1.15B25,2013-06-15 14:06:00,
2013-06-15 10:11:00,75.1,60.7,30.14,South,178,2.0,6.0,61,0.00,,,0.00,536,WeatherCatV1.15B25,2013-06-15 14:11:00,
2013-06-15 10:16:00,75.3,60.9,30.14,WSW,247,3.0,3.0,61,0.00,,,0.00,666,WeatherCatV1.15B25,2013-06-15 14:16:00,
2013-06-15 10:21:00,75.3,60.0,30.13,South,174,2.0,6.0,59,0.00,,,0.00,585,WeatherCatV1.15B25,2013-06-15 14:21:00,
2013-06-15 10:26:00,75.3,60.9,30.13,South,187,3.0,5.0,61,0.00,,,0.00,606,WeatherCatV1.15B25,2013-06-15 14:26:00,
2013-06-15 10:31:00,75.5,61.1,30.13,WSW,244,2.0,4.0,61,0.00,,,0.00,369,WeatherCatV1.15B25,2013-06-15 14:31:00,
2013-06-15 10:36:00,75.5,60.6,30.13,WSW,242,1.0,5.0,60,0.00,,,0.00,383,WeatherCatV1.15B25,2013-06-15 14:36:00,
2013-06-15 10:41:00,75.6,60.2,30.13,South,179,1.0,2.0,59,0.00,,,0.00,439,WeatherCatV1.15B25,2013-06-15 14:41:00,
2013-06-15 10:46:00,75.6,60.7,30.12,West,265,0.0,3.0,60,0.00,,,0.00,483,WeatherCatV1.15B25,2013-06-15 14:46:00,
2013-06-15 10:51:00,75.8,60.4,30.12,South,175,1.0,6.0,59,0.00,,,0.00,591,WeatherCatV1.15B25,2013-06-15 14:51:00,
2013-06-15 10:56:00,75.9,60.5,30.12,WSW,252,0.0,4.0,59,0.00,,,0.00,596,WeatherCatV1.15B25,2013-06-15 14:56:00,
2013-06-15 11:01:00,76.2,60.8,30.12,SSE,148,1.0,6.0,59,0.00,,,0.00,519,WeatherCatV1.15B25,2013-06-15 15:01:00,
2013-06-15 11:06:00,76.0,60.6,30.12,WSW,245,2.0,3.0,59,0.00,,,0.00,580,WeatherCatV1.15B25,2013-06-15 15:06:00,
2013-06-15 11:11:00,76.4,60.5,30.12,WSW,250,0.0,5.0,58,0.00,,,0.00,529,WeatherCatV1.15B25,2013-06-15 15:11:00,
2013-06-15 11:16:00,76.6,61.2,30.12,WSW,254,0.0,3.0,59,0.00,,,0.00,580,WeatherCatV1.15B25,2013-06-15 15:16:00,
2013-06-15 11:21:00,77.0,62.0,30.12,South,178,1.0,5.0,60,0.00,,,0.00,710,WeatherCatV1.15B25,2013-06-15 15:21:00,
2013-06-15 11:26:00,77.3,60.9,30.12,WSW,258,1.0,4.0,57,0.00,,,0.00,800,WeatherCatV1.15B25,2013-06-15 15:26:00,
2013-06-15 11:31:00,77.9,60.9,30.12,WNW,294,0.0,2.0,56,0.00,,,0.00,803,WeatherCatV1.15B25,2013-06-15 15:31:00,
2013-06-15 11:36:00,78.2,60.7,30.12,South,186,0.0,4.0,55,0.00,,,0.00,830,WeatherCatV1.15B25,2013-06-15 15:36:00,
2013-06-15 11:41:00,78.8,62.3,30.12,WSW,249,0.0,2.0,57,0.00,,,0.00,833,WeatherCatV1.15B25,2013-06-15 15:41:00,
2013-06-15 11:46:00,79.3,60.7,30.11,ESE,117,0.0,4.0,53,0.00,,,0.00,846,WeatherCatV1.15B25,2013-06-15 15:46:00,
2013-06-15 11:51:00,79.8,62.2,30.11,SSW,194,0.0,6.0,55,0.00,,,0.00,856,WeatherCatV1.15B25,2013-06-15 15:51:00,
2013-06-15 11:56:00,80.2,61.5,30.11,West,264,1.0,3.0,53,0.00,,,0.00,872,WeatherCatV1.15B25,2013-06-15 15:56:00,
2013-06-15 12:01:00,80.9,61.0,30.10,SSW,202,2.0,5.0,51,0.00,,,0.00,884,WeatherCatV1.15B25,2013-06-15 16:01:00,
2013-06-15 12:06:00,80.5,60.7,30.10,South,179,4.0,5.0,51,0.00,,,0.00,895,WeatherCatV1.15B25,2013-06-15 16:06:00,
2013-06-15 12:11:00,80.1,61.4,30.10,SSE,163,5.0,5.0,53,0.00,,,0.00,912,WeatherCatV1.15B25,2013-06-15 16:11:00,
2013-06-15 12:16:00,80.1,60.3,30.09,South,183,2.0,6.0,51,0.00,,,0.00,942,WeatherCatV1.15B25,2013-06-15 16:16:00,
2013-06-15 12:21:00,80.7,60.3,30.09,SW,235,6.0,6.0,50,0.00,,,0.00,983,WeatherCatV1.15B25,2013-06-15 16:21:00,
2013-06-15 12:26:00,80.7,59.2,30.09,South,178,1.0,4.0,48,0.00,,,0.00,1016,WeatherCatV1.15B25,2013-06-15 16:26:00,
2013-06-15 12:31:00,81.1,62.9,30.09,SSE,156,2.0,4.0,54,0.00,,,0.00,935,WeatherCatV1.15B25,2013-06-15 16:31:00,
2013-06-15 12:36:00,81.1,60.1,30.08,South,176,4.0,8.0,49,0.00,,,0.00,1000,WeatherCatV1.15B25,2013-06-15 16:36:00,
2013-06-15 12:41:00,80.6,61.9,30.08,South,177,7.0,7.0,53,0.00,,,0.00,967,WeatherCatV1.15B25,2013-06-15 16:41:00,
2013-06-15 12:46:00,80.4,60.6,30.08,South,185,6.0,7.0,51,0.00,,,0.00,564,WeatherCatV1.15B25,2013-06-15 16:46:00,
2013-06-15 12:51:00,79.8,60.6,30.08,South,183,2.0,5.0,52,0.00,,,0.00,1093,WeatherCatV1.15B25,2013-06-15 16:51:00,
2013-06-15 12:56:00,79.9,60.1,30.07,WSW,253,0.0,4.0,51,0.00,,,0.00,1060,WeatherCatV1.15B25,2013-06-15 16:56:00,
2013-06-15 13:01:00,80.1,60.3,30.07,SW,231,3.0,5.0,51,0.00,,,0.00,591,WeatherCatV1.15B25,2013-06-15 17:01:00,
2013-06-15 13:06:00,79.7,60.5,30.06,South,183,3.0,6.0,52,0.00,,,0.00,881,WeatherCatV1.15B25,2013-06-15 17:06:00,
2013-06-15 13:11:00,79.7,61.0,30.06,SE,140,2.0,7.0,53,0.00,,,0.00,1051,WeatherCatV1.15B25,2013-06-15 17:11:00,
2013-06-15 13:16:00,79.7,61.0,30.06,South,172,4.0,8.0,53,0.00,,,0.00,1023,WeatherCatV1.15B25,2013-06-15 17:16:00,
2013-06-15 13:21:00,80.1,60.9,30.06,SSE,154,4.0,6.0,52,0.00,,,0.00,984,WeatherCatV1.15B25,2013-06-15 17:21:00,
2013-06-15 13:26:00,80.2,60.4,30.06,South,173,2.0,4.0,51,0.00,,,0.00,1028,WeatherCatV1.15B25,2013-06-15 17:26:00,
2013-06-15 13:31:00,80.7,60.9,30.06,South,178,6.0,8.0,51,0.00,,,0.00,1069,WeatherCatV1.15B25,2013-06-15 17:31:00,
2013-06-15 13:36:00,80.7,62.0,30.06,SSW,197,2.0,3.0,53,0.00,,,0.00,933,WeatherCatV1.15B25,2013-06-15 17:36:00,
2013-06-15 13:41:00,80.9,61.0,30.06,ESE,116,2.0,7.0,51,0.00,,,0.00,601,WeatherCatV1.15B25,2013-06-15 17:41:00,
2013-06-15 13:46:00,80.5,60.7,30.05,South,184,10.0,11.0,51,0.00,,,0.00,552,WeatherCatV1.15B25,2013-06-15 17:46:00,
2013-06-15 13:51:00,80.0,59.7,30.05,South,187,0.0,10.0,50,0.00,,,0.00,585,WeatherCatV1.15B25,2013-06-15 17:51:00,
2013-06-15 13:56:00,80.0,60.2,30.05,SE,142,6.0,6.0,51,0.00,,,0.00,480,WeatherCatV1.15B25,2013-06-15 17:56:00,
2013-06-15 14:01:00,79.9,61.7,30.05,ESE,110,12.0,12.0,54,0.00,,,0.00,1039,WeatherCatV1.15B25,2013-06-15 18:01:00,
2013-06-15 14:06:00,80.0,60.8,30.05,NE,55,3.0,4.0,52,0.00,,,0.00,970,WeatherCatV1.15B25,2013-06-15 18:06:00,
2013-06-15 14:11:00,80.2,60.4,30.05,SSW,204,1.0,6.0,51,0.00,,,0.00,960,WeatherCatV1.15B25,2013-06-15 18:11:00,
2013-06-15 14:16:00,80.9,61.6,30.05,SSE,167,3.0,5.0,52,0.00,,,0.00,1009,WeatherCatV1.15B25,2013-06-15 18:16:00,
2013-06-15 14:21:00,81.0,60.6,30.05,SE,125,6.0,9.0,50,0.00,,,0.00,301,WeatherCatV1.15B25,2013-06-15 18:21:00,
2013-06-15 14:26:00,80.5,61.2,30.04,SSE,156,2.0,9.0,52,0.00,,,0.00,879,WeatherCatV1.15B25,2013-06-15 18:26:00,
2013-06-15 14:31:00,80.5,61.2,30.05,SE,128,5.0,9.0,52,0.00,,,0.00,907,WeatherCatV1.15B25,2013-06-15 18:31:00,
2013-06-15 14:36:00,80.6,60.8,30.05,SSW,200,6.0,8.0,51,0.00,,,0.00,944,WeatherCatV1.15B25,2013-06-15 18:36:00,
2013-06-15 14:41:00,80.7,60.3,30.05,South,187,3.0,9.0,50,0.00,,,0.00,951,WeatherCatV1.15B25,2013-06-15 18:41:00,
2013-06-15 14:46:00,80.5,60.1,30.05,South,179,3.0,4.0,50,0.00,,,0.00,1037,WeatherCatV1.15B25,2013-06-15 18:46:00,
2013-06-15 14:51:00,80.3,60.5,30.04,South,181,3.0,8.0,51,0.00,,,0.00,399,WeatherCatV1.15B25,2013-06-15 18:51:00,
2013-06-15 14:56:00,80.0,60.2,30.04,SSE,163,8.0,8.0,51,0.00,,,0.00,1014,WeatherCatV1.15B25,2013-06-15 18:56:00,
2013-06-15 15:01:00,80.7,61.4,30.04,SSE,156,6.0,6.0,52,0.00,,,0.00,1004,WeatherCatV1.15B25,2013-06-15 19:01:00,
2013-06-15 15:06:00,80.8,60.4,30.04,SSE,164,2.0,4.0,50,0.00,,,0.00,262,WeatherCatV1.15B25,2013-06-15 19:06:00,
2013-06-15 15:11:00,81.0,60.6,30.04,South,183,1.0,6.0,50,0.00,,,0.00,315,WeatherCatV1.15B25,2013-06-15 19:11:00,
2013-06-15 15:16:00,80.9,60.5,30.05,SE,131,0.0,6.0,50,0.00,,,0.00,353,WeatherCatV1.15B25,2013-06-15 19:16:00,
2013-06-15 15:21:00,81.3,61.4,30.05,South,176,2.0,4.0,51,0.00,,,0.00,970,WeatherCatV1.15B25,2013-06-15 19:21:00,
2013-06-15 15:26:00,81.9,60.8,30.05,South,177,9.0,12.0,49,0.00,,,0.00,969,WeatherCatV1.15B25,2013-06-15 19:26:00,
2013-06-15 15:31:00,82.0,60.3,30.05,SSW,205,1.0,13.0,48,0.00,,,0.00,279,WeatherCatV1.15B25,2013-06-15 19:31:00,
2013-06-15 15:36:00,81.6,60.0,30.05,South,169,4.0,7.0,48,0.00,,,0.00,988,WeatherCatV1.15B25,2013-06-15 19:36:00,
2013-06-15 15:41:00,81.8,60.7,30.04,SE,146,4.0,6.0,49,0.00,,,0.00,1016,WeatherCatV1.15B25,2013-06-15 19:41:00,
2013-06-15 15:46:00,82.0,61.5,30.04,NE,35,1.0,7.0,50,0.00,,,0.00,334,WeatherCatV1.15B25,2013-06-15 19:46:00,
2013-06-15 15:51:00,82.5,60.8,30.05,SSE,148,6.0,8.0,48,0.00,,,0.00,947,WeatherCatV1.15B25,2013-06-15 19:51:00,
2013-06-15 15:56:00,82.9,61.7,30.04,West,261,0.0,2.0,49,0.00,,,0.00,357,WeatherCatV1.15B25,2013-06-15 19:56:00,
2013-06-15 16:01:00,83.2,60.2,30.05,South,180,4.0,8.0,46,0.00,,,0.00,838,WeatherCatV1.15B25,2013-06-15 20:01:00,
2013-06-15 16:06:00,82.8,61.1,30.05,SSE,162,2.0,2.0,48,0.00,,,0.00,357,WeatherCatV1.15B25,2013-06-15 20:06:00,
2013-06-15 16:11:00,82.4,60.7,30.04,East,94,4.0,7.0,48,0.00,,,0.00,606,WeatherCatV1.15B25,2013-06-15 20:11:00,
2013-06-15 16:16:00,82.2,60.5,30.04,SSW,192,2.0,8.0,48,0.00,,,0.00,612,WeatherCatV1.15B25,2013-06-15 20:16:00,
2013-06-15 16:21:00,82.3,60.6,30.04,South,179,2.0,7.0,48,0.00,,,0.00,589,WeatherCatV1.15B25,2013-06-15 20:21:00,
2013-06-15 16:26:00,82.5,61.4,30.05,WSW,253,1.0,3.0,49,0.00,,,0.00,587,WeatherCatV1.15B25,2013-06-15 20:26:00,
2013-06-15 16:31:00,82.9,61.2,30.05,WSW,245,3.0,4.0,48,0.00,,,0.00,830,WeatherCatV1.15B25,2013-06-15 20:31:00,
2013-06-15 16:36:00,83.0,61.3,30.05,WSW,250,1.0,6.0,48,0.00,,,0.00,371,WeatherCatV1.15B25,2013-06-15 20:36:00,
2013-06-15 16:41:00,83.0,62.4,30.05,SW,235,0.0,2.0,50,0.00,,,0.00,359,WeatherCatV1.15B25,2013-06-15 20:41:00,
2013-06-15 16:46:00,83.3,62.7,30.04,SW,227,0.0,1.0,50,0.00,,,0.00,673,WeatherCatV1.15B25,2013-06-15 20:46:00,
2013-06-15 16:51:00,82.8,61.1,30.04,SSE,161,2.0,6.0,48,0.00,,,0.00,301,WeatherCatV1.15B25,2013-06-15 20:51:00,
2013-06-15 16:56:00,82.6,61.5,30.04,SSE,168,7.0,7.0,49,0.00,,,0.00,842,WeatherCatV1.15B25,2013-06-15 20:56:00,
2013-06-15 17:01:00,82.4,61.3,30.04,South,180,10.0,13.0,49,0.00,,,0.00,754,WeatherCatV1.15B25,2013-06-15 21:01:00,
2013-06-15 17:06:00,82.2,61.7,30.04,SSE,151,2.0,6.0,50,0.00,,,0.00,756,WeatherCatV1.15B25,2013-06-15 21:06:00,
2013-06-15 17:11:00,82.6,62.6,30.04,SW,219,0.0,3.0,51,0.00,,,0.00,742,WeatherCatV1.15B25,2013-06-15 21:11:00,
2013-06-15 17:16:00,83.1,61.9,30.04,WSW,250,1.0,4.0,49,0.00,,,0.00,236,WeatherCatV1.15B25,2013-06-15 21:16:00,
2013-06-15 17:21:00,83.0,60.7,30.04,SE,129,2.0,5.0,47,0.00,,,0.00,218,WeatherCatV1.15B25,2013-06-15 21:21:00,
2013-06-15 17:26:00,82.3,61.2,30.04,South,182,1.0,2.0,49,0.00,,,0.00,362,WeatherCatV1.15B25,2013-06-15 21:26:00,
2013-06-15 17:31:00,82.0,61.5,30.04,SW,232,2.0,4.0,50,0.00,,,0.00,244,WeatherCatV1.15B25,2013-06-15 21:31:00,
2013-06-15 17:36:00,81.8,60.7,30.04,West,265,6.0,6.0,49,0.00,,,0.00,311,WeatherCatV1.15B25,2013-06-15 21:36:00,
2013-06-15 17:41:00,81.7,60.7,30.04,WNW,285,1.0,2.0,49,0.00,,,0.00,248,WeatherCatV1.15B25,2013-06-15 21:41:00,
2013-06-15 17:46:00,81.5,61.6,30.03,WSW,248,1.0,3.0,51,0.00,,,0.00,290,WeatherCatV1.15B25,2013-06-15 21:46:00,
2013-06-15 17:51:00,81.5,61.0,30.03,SSE,167,0.0,6.0,50,0.00,,,0.00,283,WeatherCatV1.15B25,2013-06-15 21:51:00,
2013-06-15 17:56:00,81.7,61.2,30.03,South,190,3.0,7.0,50,0.00,,,0.00,686,WeatherCatV1.15B25,2013-06-15 21:56:00,
2013-06-15 18:01:00,81.8,60.7,30.02,SW,220,4.0,8.0,49,0.00,,,0.00,619,WeatherCatV1.15B25,2013-06-15 22:01:00,
2013-06-15 18:06:00,81.8,61.9,30.02,South,175,1.0,1.0,51,0.00,,,0.00,258,WeatherCatV1.15B25,2013-06-15 22:06:00,
2013-06-15 18:11:00,81.8,60.7,30.03,SW,231,1.0,7.0,49,0.00,,,0.00,464,WeatherCatV1.15B25,2013-06-15 22:11:00,
2013-06-15 18:16:00,81.9,60.8,30.02,SSW,196,2.0,6.0,49,0.00,,,0.00,229,WeatherCatV1.15B25,2013-06-15 22:16:00,
2013-06-15 18:21:00,82.0,60.3,30.03,WSW,239,5.0,5.0,48,0.00,,,0.00,174,WeatherCatV1.15B25,2013-06-15 22:21:00,
2013-06-15 18:26:00,81.8,60.7,30.02,SE,137,2.0,3.0,49,0.00,,,0.00,508,WeatherCatV1.15B25,2013-06-15 22:26:00,
2013-06-15 18:31:00,81.9,62.0,30.02,WSW,244,1.0,2.0,51,0.00,,,0.00,388,WeatherCatV1.15B25,2013-06-15 22:31:00,
2013-06-15 18:36:00,82.0,60.3,30.02,SW,231,2.0,7.0,48,0.00,,,0.00,139,WeatherCatV1.15B25,2013-06-15 22:36:00,
2013-06-15 18:41:00,82.0,60.9,30.02,SW,231,0.0,0.0,49,0.00,,,0.00,192,WeatherCatV1.15B25,2013-06-15 22:41:00,
2013-06-15 18:46:00,81.9,60.8,30.02,SW,221,1.0,3.0,49,0.00,,,0.00,165,WeatherCatV1.15B25,2013-06-15 22:46:00,
2013-06-15 18:51:00,81.8,60.7,30.02,South,190,1.0,4.0,49,0.00,,,0.00,156,WeatherCatV1.15B25,2013-06-15 22:51:00,
2013-06-15 18:56:00,81.5,59.9,30.01,South,189,2.0,8.0,48,0.00,,,0.00,107,WeatherCatV1.15B25,2013-06-15 22:56:00,
2013-06-15 19:01:00,81.0,60.0,30.01,SSW,192,4.0,4.0,49,0.00,,,0.00,88,WeatherCatV1.15B25,2013-06-15 23:01:00,
2013-06-15 19:06:00,80.6,60.2,30.01,South,169,2.0,8.0,50,0.00,,,0.00,132,WeatherCatV1.15B25,2013-06-15 23:06:00,
2013-06-15 19:11:00,80.5,60.7,30.01,South,182,2.0,5.0,51,0.00,,,0.00,221,WeatherCatV1.15B25,2013-06-15 23:11:00,
2013-06-15 19:16:00,80.7,60.9,30.00,SE,141,4.0,5.0,51,0.00,,,0.00,200,WeatherCatV1.15B25,2013-06-15 23:16:00,
2013-06-15 19:21:00,81.0,61.1,30.00,SE,145,2.0,7.0,51,0.00,,,0.00,86,WeatherCatV1.15B25,2013-06-15 23:21:00,
2013-06-15 19:26:00,81.0,60.6,30.00,South,171,3.0,9.0,50,0.00,,,0.00,72,WeatherCatV1.15B25,2013-06-15 23:26:00,
2013-06-15 19:31:00,80.9,61.0,29.99,SSW,202,4.0,5.0,51,0.00,,,0.00,69,WeatherCatV1.15B25,2013-06-15 23:31:00,
2013-06-15 19:36:00,80.6,60.8,29.99,South,187,5.0,5.0,51,0.00,,,0.00,60,WeatherCatV1.15B25,2013-06-15 23:36:00,
2013-06-15 19:41:00,80.5,61.2,29.99,SSE,150,1.0,1.0,52,0.00,,,0.00,58,WeatherCatV1.15B25,2013-06-15 23:41:00,
2013-06-15 19:46:00,80.4,61.1,29.99,South,175,5.0,5.0,52,0.00,,,0.00,56,WeatherCatV1.15B25,2013-06-15 23:46:00,
2013-06-15 19:51:00,80.3,61.0,29.98,South,188,3.0,4.0,52,0.00,,,0.00,42,WeatherCatV1.15B25,2013-06-15 23:51:00,
2013-06-15 19:56:00,80.2,61.0,29.98,ESE,108,4.0,4.0,52,0.00,,,0.00,46,WeatherCatV1.15B25,2013-06-15 23:56:00,
2013-06-15 20:01:00,80.0,60.8,29.98,South,185,4.0,7.0,52,0.00,,,0.00,40,WeatherCatV1.15B25,2013-06-16 00:01:00,
2013-06-15 20:06:00,79.8,60.6,29.98,South,177,1.0,5.0,52,0.00,,,0.00,37,WeatherCatV1.15B25,2013-06-16 00:06:00,
2013-06-15 20:11:00,79.6,60.4,29.98,SSW,199,4.0,8.0,52,0.00,,,0.00,35,WeatherCatV1.15B25,2013-06-16 00:11:00,
2013-06-15 20:16:00,79.4,61.3,29.97,SSE,167,2.0,5.0,54,0.00,,,0.00,35,WeatherCatV1.15B25,2013-06-16 00:16:00,
2013-06-15 20:21:00,79.3,61.7,29.97,ESE,102,1.0,4.0,55,0.00,,,0.00,35,WeatherCatV1.15B25,2013-06-16 00:21:00,
2013-06-15 20:26:00,79.2,61.6,29.98,SSE,158,4.0,5.0,55,0.00,,,0.00,37,WeatherCatV1.15B25,2013-06-16 00:26:00,
2013-06-15 20:31:00,79.1,62.0,29.98,SSE,164,2.0,4.0,56,0.00,,,0.00,35,WeatherCatV1.15B25,2013-06-16 00:31:00,
2013-06-15 20:36:00,78.9,61.8,29.98,SSE,164,1.0,2.0,56,0.00,,,0.00,28,WeatherCatV1.15B25,2013-06-16 00:36:00,
2013-06-15 20:41:00,78.9,62.3,29.98,SSE,164,0.0,4.0,57,0.00,,,0.00,23,WeatherCatV1.15B25,2013-06-16 00:41:00,
2013-06-15 20:46:00,78.8,62.3,29.98,South,181,1.0,3.0,57,0.00,,,0.00,16,WeatherCatV1.15B25,2013-06-16 00:46:00,
2013-06-15 20:51:00,78.5,62.5,29.98,South,177,2.0,3.0,58,0.00,,,0.00,9,WeatherCatV1.15B25,2013-06-16 00:51:00,
2013-06-15 20:56:00,78.3,62.3,29.99,South,179,2.0,5.0,58,0.00,,,0.00,5,WeatherCatV1.15B25,2013-06-16 00:56:00,
2013-06-15 21:01:00,78.0,62.5,29.99,SSE,160,0.0,1.0,59,0.00,,,0.00,0,WeatherCatV1.15B25,2013-06-16 01:01:00,
2013-06-15 21:06:00,77.7,62.2,29.98,SSE,164,0.0,4.0,59,0.00,,,0.00,0,WeatherCatV1.15B25,2013-06-16 01:06:00,
2013-06-15 21:11:00,77.5,62.5,29.99,South,180,2.0,4.0,60,0.00,,,0.00,0,WeatherCatV1.15B25,2013-06-16 01:11:00,
2013-06-15 21:16:00,77.3,62.8,29.98,South,169,0.0,4.0,61,0.00,,,0.00,0,WeatherCatV1.15B25,2013-06-16 01:16:00,
2013-06-15 21:21:00,77.1,62.1,29.98,South,179,3.0,4.0,60,0.00,,,0.00,0,WeatherCatV1.15B25,2013-06-16 01:21:00,
2013-06-15 21:26:00,77.0,62.5,29.98,South,179,3.0,3.0,61,0.00,,,0.00,0,WeatherCatV1.15B25,2013-06-16 01:26:00,
2013-06-15 21:31:00,76.8,62.3,29.98,South,173,3.0,3.0,61,0.00,,,0.00,0,WeatherCatV1.15B25,2013-06-16 01:31:00,
2013-06-15 21:36:00,76.6,62.6,29.98,South,185,3.0,3.0,62,0.00,,,0.00,0,WeatherCatV1.15B25,2013-06-16 01:36:00,
2013-06-15 21:41:00,76.4,62.4,29.98,SSE,154,2.0,4.0,62,0.00,,,0.00,0,WeatherCatV1.15B25,2013-06-16 01:41:00,
2013-06-15 21:46:00,76.2,62.2,29.98,SSW,192,3.0,4.0,62,0.00,,,0.00,0,WeatherCatV1.15B25,2013-06-16 01:46:00,
2013-06-15 21:51:00,76.1,62.1,29.99,South,178,2.0,4.0,62,0.00,,,0.00,0,WeatherCatV1.15B25,2013-06-16 01:51:00,
2013-06-15 21:56:00,75.9,62.4,29.99,South,184,4.0,4.0,63,0.00,,,0.00,0,WeatherCatV1.15B25,2013-06-16 01:56:00,
2013-06-15 22:01:00,75.9,62.4,29.99,South,183,1.0,5.0,63,0.00,,,0.00,0,WeatherCatV1.15B25,2013-06-16 02:01:00,
2013-06-15 22:06:00,75.8,61.8,29.99,SSE,155,1.0,6.0,62,0.00,,,0.00,0,WeatherCatV1.15B25,2013-06-16 02:06:00,
2013-06-15 22:11:00,75.8,61.8,30.00,South,183,4.0,6.0,62,0.00,,,0.00,0,WeatherCatV1.15B25,2013-06-16 02:11:00,
2013-06-15 22:16:00,75.9,61.9,30.00,South,178,0.0,3.0,62,0.00,,,0.00,0,WeatherCatV1.15B25,2013-06-16 02:16:00,
2013-06-15 22:21:00,75.9,61.5,30.00,South,188,1.0,5.0,61,0.00,,,0.00,0,WeatherCatV1.15B25,2013-06-16 02:21:00,
2013-06-15 22:26:00,75.8,61.4,30.00,South,177,5.0,5.0,61,0.00,,,0.00,0,WeatherCatV1.15B25,2013-06-16 02:26:00,
2013-06-15 22:31:00,75.8,61.4,30.00,SSW,198,2.0,5.0,61,0.00,,,0.00,0,WeatherCatV1.15B25,2013-06-16 02:31:00,
2013-06-15 22:36:00,75.7,61.3,30.00,South,171,1.0,3.0,61,0.00,,,0.00,0,WeatherCatV1.15B25,2013-06-16 02:36:00,
2013-06-15 22:41:00,75.7,61.3,30.00,SSE,152,1.0,5.0,61,0.00,,,0.00,0,WeatherCatV1.15B25,2013-06-16 02:41:00,
2013-06-15 22:46:00,75.6,61.6,30.00,South,185,3.0,5.0,62,0.00,,,0.00,0,WeatherCatV1.15B25,2013-06-16 02:46:00,
2013-06-15 22:51:00,75.6,61.2,30.01,SSW,198,2.0,4.0,61,0.00,,,0.00,0,WeatherCatV1.15B25,2013-06-16 02:51:00,
2013-06-15 22:56:00,75.5,61.5,30.00,SSE,165,1.0,5.0,62,0.00,,,0.00,0,WeatherCatV1.15B25,2013-06-16 02:56:00,
2013-06-15 23:01:00,75.5,61.5,30.00,SE,141,9.0,9.0,62,0.00,,,0.00,0,WeatherCatV1.15B25,2013-06-16 03:01:00,
2013-06-15 23:06:00,75.5,61.5,30.00,SSE,150,2.0,6.0,62,0.00,,,0.00,0,WeatherCatV1.15B25,2013-06-16 03:06:00,
2013-06-15 23:11:00,75.4,61.5,30.00,SSW,192,3.0,6.0,62,0.00,,,0.00,0,WeatherCatV1.15B25,2013-06-16 03:11:00,
2013-06-15 23:16:00,75.3,61.4,30.00,SSW,202,1.0,5.0,62,0.00,,,0.00,0,WeatherCatV1.15B25,2013-06-16 03:16:00,
2013-06-15 23:21:00,75.2,61.3,30.00,SSE,162,5.0,5.0,62,0.00,,,0.00,0,WeatherCatV1.15B25,2013-06-16 03:21:00,
2013-06-15 23:26:00,75.1,61.6,30.00,SSW,196,1.0,8.0,63,0.00,,,0.00,0,WeatherCatV1.15B25,2013-06-16 03:26:00,
2013-06-15 23:31:00,75.0,61.5,30.00,South,174,3.0,7.0,63,0.00,,,0.00,0,WeatherCatV1.15B25,2013-06-16 03:31:00,
2013-06-15 23:37:00,74.8,61.8,30.00,SSE,163,2.0,6.0,64,0.00,,,0.00,0,WeatherCatV1.15B25,2013-06-16 03:37:00,
2013-06-15 23:42:00,74.7,61.7,30.00,WSW,239,3.0,6.0,64,0.00,,,0.00,0,WeatherCatV1.15B25,2013-06-16 03:42:00,
2013-06-15 23:47:00,74.6,62.0,30.00,SSW,194,1.0,4.0,65,0.00,,,0.00,0,WeatherCatV1.15B25,2013-06-16 03:47:00,
2013-06-15 23:52:00,74.4,61.8,30.00,South,171,1.0,7.0,65,0.00,,,0.00,0,WeatherCatV1.15B25,2013-06-16 03:52:00,
2013-06-15 23:57:00,74.3,61.8,30.00,SSE,162,2.0,4.0,65,0.00,,,0.00,0,WeatherCatV1.15B25,2013-06-16 03:57:00,